Tracking 21076 objects as of 7-Aug-2020
HD Live streaming from Space Station
objects crossing your sky now

FREGAT DEB

Track FREGAT DEB now!
10-day predictions


NORAD ID: 45819
Int'l Code: 2011-037BD
Perigee: 236.3 km
Apogee: 1,647.3 km
Inclination: 51.2 °
Period: 103.7 minutes
Semi major axis: 7312 km
RCS: Unknown
Launch date: July 18, 2011
Source: Commonwealth of Independent States (former USSR) (CIS)
Launch site: TYURATAM MISSILE AND SPACE COMPLEX (TTMTR)

Note: This is SATELLITE DEBRIS
aabbcc
Your satellite tracking list
Your tracking list is empty




NASA's NSSDC Master Catalog

Two Line Element Set (TLE):
1 45819U 11037BD  20219.84726067 +.01151386 +17260-3 +75743-2 0  9995
2 45819 051.2251 152.2794 0964714 226.0566 125.6746 13.88286058008483
Source of the keplerian elements: AFSPC